Change the Weather History Date:

Tuesday, April 16, 2013

  Actual Average Record
Temperature  
Mean Temperature 51 °F -  
Max Temperature 58 °F 56 °F 73 °F (2003)
Min Temperature 44 °F 42 °F 30 °F (2014)
Degree Days  
Heating Degree Days 14    
Growing Degree Days 1 (Base 50)    
Moisture  
Dew Point 47 °F    
Average Humidity 82    
Maximum Humidity 94    
Minimum Humidity 62    
Precipitation  
Precipitation 0.00 in - - ()
Sea Level Pressure  
Sea Level Pressure 30.01 in    
Wind  
Wind Speed 11 mph ()    
Max Wind Speed 24 mph    
Max Gust Speed 37 mph    
Visibility 5.7 miles    
Events      
Averages and records for this station are not official NWS values.
T = Trace of Precipitation, MM = Missing Value Source: Averaged Metar Reports

Daily Weather History Graph

Daily Weather History Graph

Search for Another Location

Airport or City:

Trip Planner

Search our weather history database for the weather conditions in past years. The results will help you decide how hot, cold, wet, or windy it might be!

Date:

Astronomy

Apr. 16, 2013 Rise Set
Actual Time 6:35 AM CEST 8:39 PM CEST
Civil Twilight 5:58 AM CEST 9:16 PM CEST
Nautical Twilight 5:11 AM CEST 10:03 PM CEST
Astronomical Twilight 4:17 AM CEST 10:58 PM CEST
Moon 10:16 AM CEST (4/16) 1:48 AM CEST (4/16)
Length of Visible Light 15h 18m
Length of Day
14h 03m
Waxing Crescent, 31% of the Moon is Illuminated
Apr 16
Waxing Crescent
Apr 18
First Quarter
Apr 25
Full
May 2
Last Quarter
May 10
New

Hourly Weather History & Observations

Time (CEST) Temp. Windchill Dew Point Humidity Pressure Visibility Wind Dir Wind Speed Gust Speed Precip Events Conditions
12:25 AM 46.4 °F 42.9 °F 42.8 °F 87% 30.06 in 6.2 mi South 6.9 mph - N/A   Unknown
12:55 AM 46.4 °F 42.9 °F 42.8 °F 87% 30.06 in 6.2 mi South 6.9 mph - N/A   Partly Cloudy
1:25 AM 44.6 °F 40.7 °F 41.0 °F 87% 30.06 in 6.2 mi SSW 6.9 mph - N/A   Partly Cloudy
1:55 AM 44.6 °F 41.4 °F 41.0 °F 87% 30.06 in 6.2 mi South 5.8 mph - N/A   Unknown
2:00 AM 46 °F - 42 °F 83% 30.07 in 9 mi South 6.7 mph - -   Partly Cloudy
2:25 AM 46.4 °F 44.3 °F 41.0 °F 81% 30.06 in 6.2 mi South 4.6 mph - N/A   Unknown
2:55 AM 46.4 °F 43.5 °F 42.8 °F 87% 30.04 in 6.2 mi South 5.8 mph - N/A   Unknown
3:25 AM 46.4 °F 43.5 °F 42.8 °F 87% 30.04 in 6.2 mi South 5.8 mph - N/A   Unknown
3:55 AM 46.4 °F 43.5 °F 42.8 °F 87% 30.04 in 5.6 mi South 5.8 mph - N/A   Mist
4:18 AM 46.4 °F 44.3 °F 42.8 °F 87% 30.04 in 4.3 mi South 4.6 mph - N/A   Mist
4:25 AM 46.4 °F 43.5 °F 42.8 °F 87% 30.04 in 5.0 mi South 5.8 mph - N/A   Mist
4:35 AM 46.4 °F 42.9 °F 42.8 °F 87% 30.04 in 5.6 mi South 6.9 mph - N/A   Partly Cloudy
4:55 AM 46.4 °F 42.9 °F 42.8 °F 87% 30.04 in 5.0 mi South 6.9 mph - N/A   Partly Cloudy
4:56 AM 46.4 °F 42.9 °F 42.8 °F 87% 30.04 in 4.3 mi South 6.9 mph - N/A   Partly Cloudy
5:25 AM 46.4 °F 41.9 °F 44.6 °F 93% 30.04 in 3.7 mi South 9.2 mph - N/A   Mist
5:55 AM 46.4 °F 42.4 °F 44.6 °F 93% 30.04 in 3.1 mi South 8.1 mph - N/A   Mist
6:14 AM 46.4 °F 42.4 °F 42.8 °F 87% 30.04 in - South 8.1 mph - N/A   Mist
6:18 AM 46.4 °F 42.4 °F 44.6 °F 93% 30.01 in 3.1 mi South 8.1 mph - N/A   Partly Cloudy
6:25 AM 46.4 °F 42.4 °F 44.6 °F 93% 30.01 in - South 8.1 mph - N/A   Partly Cloudy
6:29 AM 46.4 °F 42.4 °F 44.6 °F 93% 30.01 in 3.1 mi South 8.1 mph - N/A   Partly Cloudy
6:30 AM 46.4 °F 42.4 °F 44.6 °F 93% 30.01 in - South 8.1 mph - N/A   Partly Cloudy
6:55 AM 46.4 °F 43.5 °F 44.6 °F 93% 30.01 in 2.8 mi South 5.8 mph - N/A   Mist
7:00 AM 46.4 °F 42.9 °F 44.6 °F 93% 30.01 in 3.1 mi South 6.9 mph - N/A   Mist
7:06 AM 46.4 °F 42.9 °F 44.6 °F 93% 30.01 in 2.8 mi South 6.9 mph - N/A   Mist
7:25 AM 46.4 °F 43.5 °F 44.6 °F 93% 30.01 in - South 5.8 mph - N/A   Mostly Cloudy
7:30 AM 46.4 °F 43.5 °F 44.6 °F 93% 30.01 in - South 5.8 mph - N/A   Scattered Clouds
7:36 AM 46.4 °F 43.5 °F 44.6 °F 93% 30.01 in - South 5.8 mph - N/A   Scattered Clouds
7:40 AM 46.4 °F 43.5 °F 44.6 °F 93% 30.01 in - South 5.8 mph - N/A   Mostly Cloudy
7:49 AM 46.4 °F 42.9 °F 44.6 °F 93% 30.01 in - South 6.9 mph - N/A   Mostly Cloudy
7:55 AM 48.2 °F - 44.6 °F 87% 30.01 in - South 6.9 mph - N/A   Mostly Cloudy
7:59 AM 48.2 °F - 46.4 °F 93% 30.01 in - South 6.9 mph - N/A   Mostly Cloudy
8:00 AM 48 °F - 46 °F 89% 30.02 in 2 mi South 6.7 mph - -   Mist
8:09 AM 48.2 °F - 46.4 °F 93% 30.01 in - South 8.1 mph - N/A   Mostly Cloudy
8:12 AM 48.2 °F - 46.4 °F 93% 30.01 in - South 6.9 mph - N/A   Overcast
8:25 AM 50.0 °F - 48.2 °F 94% 30.01 in - South 6.9 mph - N/A   Overcast
8:46 AM 53.6 °F - 50.0 °F 88% 30.01 in - South 10.4 mph - N/A   Mostly Cloudy
8:55 AM 53.6 °F - 50.0 °F 88% 30.01 in - South 9.2 mph - N/A   Overcast
9:02 AM 53.6 °F - 50.0 °F 88% 30.01 in 3.1 mi South 10.4 mph - N/A   Mostly Cloudy
9:08 AM 53.6 °F - 50.0 °F 88% 30.01 in - South 10.4 mph - N/A   Mostly Cloudy
9:12 AM 53.6 °F - 50.0 °F 88% 29.98 in 3.1 mi South 11.5 mph - N/A   Mostly Cloudy
9:25 AM 55.4 °F - 50.0 °F 82% 29.98 in 3.1 mi South 12.7 mph - N/A   Overcast
9:43 AM 55.4 °F - 50.0 °F 82% 29.98 in 5.0 mi South 15.0 mph - N/A   Overcast
9:47 AM 55.4 °F - 50.0 °F 82% 29.98 in 4.3 mi South 13.8 mph - N/A   Overcast
9:55 AM 57.2 °F - 50.0 °F 77% 29.98 in 5.0 mi South 15.0 mph - N/A   Overcast
10:08 AM 57.2 °F - 50.0 °F 77% 29.98 in 5.0 mi South 13.8 mph - N/A   Overcast
10:21 AM 57.2 °F - 50.0 °F 77% 29.98 in 4.3 mi SSW 17.3 mph - N/A   Overcast
10:25 AM 57.2 °F - 50.0 °F 77% 29.98 in 5.6 mi SSW 16.1 mph - N/A   Overcast
10:36 AM 57.2 °F - 48.2 °F 72% 29.98 in 5.6 mi SSW 17.3 mph - N/A   Haze
10:42 AM 57.2 °F - 50.0 °F 77% 29.98 in 5.6 mi SSW 16.1 mph - N/A   Haze
10:55 AM 57.2 °F - 50.0 °F 77% 29.98 in 5.6 mi SSW 17.3 mph - N/A   Haze
11:25 AM 57.2 °F - 50.0 °F 77% 29.98 in 6.2 mi SW 18.4 mph - N/A   Scattered Clouds
11:55 AM 57.2 °F - 46.4 °F 67% 29.98 in 6.2 mi SW 18.4 mph 31.1 mph N/A   Mostly Cloudy
12:25 PM 57.2 °F - 46.4 °F 67% 29.98 in 6.2 mi SW 20.7 mph - N/A   Overcast
12:55 PM 57.2 °F - 44.6 °F 63% 29.98 in 6.2 mi SW 19.6 mph - N/A   Overcast
1:25 PM 57.2 °F - 44.6 °F 63% 29.98 in 6.2 mi SW 23.0 mph 36.8 mph N/A   Overcast
1:31 PM 57.2 °F - 46.4 °F 67% 29.98 in 6.2 mi SW 20.7 mph 36.8 mph N/A   Mostly Cloudy
1:33 PM 57.2 °F - 46.4 °F 67% 29.98 in 6.2 mi SW 20.7 mph 34.5 mph N/A   Mostly Cloudy
1:55 PM 57.2 °F - 46.4 °F 67% 29.98 in 6.2 mi SW 23.0 mph - N/A   Mostly Cloudy
2:00 PM 56 °F - 47 °F 62% 30.00 in 12 mi SW 22.4 mph - -   Partly Cloudy
2:22 PM 53.6 °F - 48.2 °F 82% 29.98 in 6.2 mi WSW 24.2 mph - N/A   Overcast
2:25 PM 53.6 °F - 48.2 °F 82% 29.98 in 6.2 mi WSW 24.2 mph - N/A   Overcast
2:33 PM 53.6 °F - 48.2 °F 82% 29.98 in 4.3 mi SW 23.0 mph 34.5 mph N/A   Haze
2:35 PM 51.8 °F - 48.2 °F 88% 30.01 in - SW 24.2 mph - N/A   Haze
2:38 PM 51.8 °F - 48.2 °F 88% 30.01 in - SW 24.2 mph - N/A   Haze
2:41 PM 51.8 °F - 48.2 °F 88% 30.01 in 3.1 mi SW 23.0 mph - N/A   Mostly Cloudy
2:46 PM 51.8 °F - 50.0 °F 94% 30.01 in - SW 21.9 mph - N/A   Mostly Cloudy
2:47 PM 51.8 °F - 50.0 °F 94% 30.01 in - SW 21.9 mph - N/A   Mostly Cloudy
2:55 PM 51.8 °F - 50.0 °F 94% 30.01 in 5.0 mi SW 21.9 mph - N/A   Mostly Cloudy
3:03 PM 53.6 °F - 48.2 °F 82% 29.98 in 6.2 mi SW 21.9 mph - N/A   Mostly Cloudy
3:04 PM 53.6 °F - 48.2 °F 82% 29.98 in 6.2 mi SW 21.9 mph - N/A   Mostly Cloudy
3:10 PM 53.6 °F - 50.0 °F 88% 29.98 in 6.2 mi SW 21.9 mph 33.4 mph N/A   Mostly Cloudy
3:13 PM 53.6 °F - 50.0 °F 88% 30.01 in 6.2 mi SW 21.9 mph 33.4 mph N/A   Mostly Cloudy
3:15 PM 53.6 °F - 50.0 °F 88% 30.01 in 6.2 mi SW 21.9 mph 33.4 mph N/A   Mostly Cloudy
3:16 PM 55.4 °F - 50.0 °F 82% 30.01 in 6.2 mi SW 21.9 mph 33.4 mph N/A   Mostly Cloudy
3:18 PM 53.6 °F - 50.0 °F 88% 30.01 in 6.2 mi SW 20.7 mph - N/A   Mostly Cloudy
3:25 PM 53.6 °F - 48.2 °F 82% 30.01 in 6.2 mi SW 20.7 mph - N/A   Overcast
3:31 PM 55.4 °F - 48.2 °F 77% 30.01 in 6.2 mi SW 23.0 mph - N/A   Overcast
3:32 PM 55.4 °F - 48.2 °F 77% 30.01 in 6.2 mi SW 21.9 mph - N/A   Overcast
3:33 PM 55.4 °F - 48.2 °F 77% 30.01 in 6.2 mi SW 23.0 mph - N/A   Overcast
3:37 PM 55.4 °F - 48.2 °F 77% 30.01 in 6.2 mi SW 21.9 mph - N/A   Mostly Cloudy
3:42 PM 55.4 °F - 48.2 °F 77% 30.01 in 6.2 mi SW 21.9 mph - N/A   Mostly Cloudy
3:46 PM 55.4 °F - 48.2 °F 77% 30.01 in 6.2 mi SW 21.9 mph 33.4 mph N/A   Mostly Cloudy
3:50 PM 55.4 °F - 48.2 °F 77% 30.01 in 6.2 mi SW 20.7 mph 33.4 mph N/A   Mostly Cloudy
3:52 PM 55.4 °F - 48.2 °F 77% 30.01 in 6.2 mi SW 20.7 mph 33.4 mph N/A   Mostly Cloudy
3:55 PM 55.4 °F - 48.2 °F 77% 30.01 in 6.2 mi SW 19.6 mph 33.4 mph N/A   Mostly Cloudy
3:58 PM 55.4 °F - 46.4 °F 72% 30.01 in 6.2 mi SW 20.7 mph 32.2 mph N/A   Mostly Cloudy
4:04 PM 55.4 °F - 46.4 °F 72% 30.01 in 6.2 mi WSW 21.9 mph 33.4 mph N/A   Mostly Cloudy
4:06 PM 55.4 °F - 46.4 °F 72% 30.01 in 6.2 mi SW 19.6 mph 33.4 mph N/A   Mostly Cloudy
4:10 PM 55.4 °F - 46.4 °F 72% 30.01 in 6.2 mi SW 18.4 mph - N/A   Mostly Cloudy
4:12 PM 55.4 °F - 46.4 °F 72% 30.01 in 6.2 mi SW 19.6 mph 31.1 mph N/A   Mostly Cloudy
4:17 PM 55.4 °F - 46.4 °F 72% 30.01 in 6.2 mi SW 20.7 mph - N/A   Mostly Cloudy
4:25 PM 55.4 °F - 46.4 °F 72% 30.01 in 6.2 mi SW 20.7 mph - N/A   Mostly Cloudy
4:31 PM 55.4 °F - 46.4 °F 72% 30.01 in 6.2 mi SW 18.4 mph - N/A   Mostly Cloudy
4:42 PM 55.4 °F - 46.4 °F 72% 30.01 in 6.2 mi SW 19.6 mph - N/A   Mostly Cloudy
4:55 PM 55.4 °F - 46.4 °F 72% 30.01 in 6.2 mi SW 17.3 mph - N/A   Overcast
5:25 PM 55.4 °F - 46.4 °F 72% 30.01 in 6.2 mi SW 16.1 mph 28.8 mph N/A   Overcast
5:55 PM 55.4 °F - 46.4 °F 72% 30.01 in 6.2 mi SW 19.6 mph - N/A   Overcast
6:25 PM 53.6 °F - 46.4 °F 77% 30.01 in 6.2 mi SW 16.1 mph - N/A   Partly Cloudy
6:55 PM 53.6 °F - 46.4 °F 77% 30.01 in 6.2 mi SW 16.1 mph - N/A   Overcast
7:25 PM 53.6 °F - 46.4 °F 77% 30.01 in 6.2 mi SW 16.1 mph - N/A   Mostly Cloudy
7:55 PM 53.6 °F - 46.4 °F 77% 30.04 in 6.2 mi SW 16.1 mph - N/A   Overcast
8:00 PM 53 °F - 47 °F 72% 30.04 in 12 mi SW 15.7 mph - -   Partly Cloudy
8:25 PM 51.8 °F - 46.4 °F 82% 30.04 in 6.2 mi SW 13.8 mph - N/A   Unknown
8:55 PM 50.0 °F - 46.4 °F 87% 30.04 in 6.2 mi SW 11.5 mph - N/A   Unknown
9:25 PM 50.0 °F - 44.6 °F 82% 30.04 in 6.2 mi SW 13.8 mph - N/A   Unknown
9:55 PM 48.2 °F - 44.6 °F 87% 30.04 in 6.2 mi SW 10.4 mph - N/A   Unknown
10:25 PM 48.2 °F - 44.6 °F 87% 30.06 in 6.2 mi SW 11.5 mph - N/A   Unknown
10:55 PM 46.4 °F 41.5 °F 44.6 °F 93% 30.06 in 6.2 mi SW 10.4 mph - N/A   Unknown
11:25 PM 46.4 °F 41.9 °F 42.8 °F 87% 30.06 in 6.2 mi SW 9.2 mph - N/A   Unknown
11:55 PM 44.6 °F 40.2 °F 42.8 °F 93% 30.06 in 6.2 mi SW 8.1 mph - N/A   Unknown